Regional Weather Roundup
Issued by NWS

Home | Current Version | Previous Version | Text Only | Print | Product List | Glossary Off
Versions: 1 2 3 4 5 6 7 8 9 10 11 12 13 14 15 16 17 18 19 20 21 22 23 24 25 26 27 28 29 30 31 32 33 34 35 36 37 38 39 40 41 42 43 44 45 46 47 48 49 50

000
ASUS43 KMKX 252218
RWRWI

WISCONSIN REGIONAL WEATHER ROUNDUP
NATIONAL WEATHER SERVICE MILWAUKEE/SULLIVAN WI
500 PM CDT MON MAY 25 2015

NOTE: "FAIR" INDICATES FEW OR NO CLOUDS BELOW 12,000 FEET WITH NO
SIGNIFICANT WEATHER AND/OR OBSTRUCTIONS TO VISIBILITY.

WIZ001-002-006>008-014>016-023>028-252300-
NORTHWEST WISCONSIN

CITY           SKY/WX    TMP DP  RH WIND       PRES   REMARKS
SUPERIOR ARPT  CLOUDY    46  46  99 CALM      29.74R
ASHLAND        CLOUDY    59  58  96 CALM      29.71S
HAYWARD        CLOUDY    65  57  75 SW8       29.73R
SIREN          CLOUDY    66  57  71 SW10G20   29.73R
CUMBERLAND     CLOUDY    63  55  77 SW10      29.75R
RICE LAKE      CLOUDY    66  56  71 SW9       29.77R
CHETEK         CLOUDY    66  59  76 SW5       29.75R
LADYSMITH      CLOUDY    67  58  72 SW13      29.77R
EAU CLAIRE     PTSUNNY   74  58  57 W15G24    29.73S
MENOMONIE      PTSUNNY   73  60  62 W12G20    29.74S
NEW RICHMOND   MOSUNNY   67  57  72 SW9       29.75S
OSCEOLA        CLOUDY    67  59  74 S9        29.76S
$$

WIZ003>005-009-010-017-018-252300-
NORTH CENTRAL WISCONSIN

CITY           SKY/WX    TMP DP  RH WIND       PRES   REMARKS
MANITOWISH WTR CLOUDY    66  61  85 SW10G18   29.73R
ARBOR VITAE    CLOUDY    66  60  82 SW9G16    29.74R
WOODRUFF       CLOUDY    66  60  82 SW9G16    29.74R
RHINELANDER    CLOUDY    67  58  72 SW10      29.76R
EAGLE RIVER    CLOUDY    65  61  87 SW8       29.74R
LAND O LAKES   CLOUDY    66  60  82 W7        29.74R
PHILLIPS       CLOUDY    67  59  74 SW12G22   29.74R
TOMAHAWK       MOSUNNY   69  58  69 SW5       29.76S
MEDFORD        PTSUNNY   69  60  72 SW10G17   29.77R
MERRILL        PTSUNNY   71  60  68 W13G25    29.77R
$$

WIZ029-030-035-036-043>047-252300-
CENTRAL WISCONSIN

CITY           SKY/WX    TMP DP  RH WIND       PRES   REMARKS
WAUSAU         MOSUNNY   73  59  61 W15G23    29.75S
MOSINEE        NOT AVBL
MARSHFIELD     MOSUNNY   76  59  55 SW14      29.76S
STEVENS POINT  CLOUDY    74  58  56 SW15G23   29.77R
WAUPACA        MOSUNNY   78  60  52 SW16G24   29.78R HX  80
WAUTOMA        MOSUNNY   78  62  57 SW16G23   29.78S
WISC RAPIDS    PTSUNNY   76  58  53 SW12      29.78S
CAMP DOUGLAS   LGT RAIN  75  68  78 SW7       29.77S
$$

WIZ011>013-019>022-031-037>040-048>050-252300-
NORTHEAST WISCONSIN

CITY           SKY/WX    TMP DP  RH WIND       PRES   REMARKS
ANTIGO         PTSUNNY   69  61  74 SW14G24   29.78R
SHAWANO        PTSUNNY   77  60  55 W10G22    29.76R
OCONTO         PTSUNNY   77  62  60 W14G21    29.75R
STURGEON BAY   MOSUNNY   75  61  60 SW17G29   29.78R
GREEN BAY      MOSUNNY   77  63  61 SW13G21   29.78R
MANITOWOC      PTSUNNY   77  62  59 W16G28    29.80R
APPLETON       PTSUNNY   75  61  60 SW17G25   29.80R
CLINTONVILLE   MOSUNNY   77  59  53 SW13      29.76S
OSHKOSH        MOSUNNY   77  62  59 SW17G23   29.80R
$$

WIZ032>034-041-042-053>061-252300-
SOUTHWEST WISCONSIN

CITY           SKY/WX    TMP DP  RH WIND       PRES   REMARKS
LA CROSSE      PTSUNNY   68  61  78 SW7       29.78F
SPARTA         PTSUNNY   74  62  66 W8        29.78R
VIROQUA        PTSUNNY   75  59  56 SW20G29   29.81S
BOSCOBEL       PTSUNNY   78  60  53 S15G24    29.80F
PRAIRIE DU CHI MOSUNNY   78  58  50 SW15G21   29.80S
PLATTEVILLE    MOSUNNY   77  64  62 S23       29.86S
$$

WIZ056-057-062-063-064-067-068-252300-
SOUTH CENTRAL WISCONSIN

CITY           SKY/WX    TMP DP  RH WIND       PRES   REMARKS
REEDSBURG      MOSUNNY   75  62  64 SW16G23   29.80S
BARABOO/DELLS  MOSUNNY   77  60  55 SW16G22   29.80F
LONE ROCK      MOSUNNY   77  61  57 SW16G23   29.81F
MINERAL POINT  PTSUNNY   77  61  57 SW16G28   29.85S
MADISON        PTSUNNY   78  59  51 SW10G20   29.83S
MIDDLETON      PTSUNNY   79  58  49 SW12G26   29.84F HX  80
WATERTOWN      PTSUNNY   77  63  61 SW13G24   29.84S
MONROE         MOSUNNY   77  61  57 SW21G33   29.87S
JANESVILLE     MOSUNNY   63  57  82 SW21G26   29.86F
$$

WIZ051-052-058>065-066-070>072-252300-
SOUTHEAST WISCONSIN

CITY           SKY/WX    TMP DP  RH WIND       PRES   REMARKS
MILWAUKEE      PTSUNNY   77  60  55 SW18G26   29.87R
WAUKESHA       PTSUNNY   73  61  64 SW16G23   29.87R
MILWAUKEE/TIMM PTSUNNY   79  57  47 SW21      29.86R HX  80
RACINE         MOSUNNY   78  60  53 SW13G25   29.89R
BURLINGTON     MOSUNNY   77  61  56 SW20G26   29.88S
KENOSHA        PTSUNNY   78  62  57 SW17G31   29.89R HX  80
FOND DU LAC    PTSUNNY   76  61  59 SW12G23   29.81S
SHEBOYGAN      MOSUNNY   77  61  57 SW21      29.82R
WEST BEND      MOSUNNY   77  59  53 SW15G25   29.85R
JUNEAU         MOSUNNY   76  62  60 SW21G29   29.85S
$$

LSZ147-162-252300-
LAKE SUPERIOR

STATION/POSITION TIME  TEMP    WIND        PRES    WAVE
                       AIR SEA DIR/SP/G            HT/PER
                 (UTC) (F)     (DEG/KT/KT) (MB)    (FT/S)
W MID LAKE BUOY  2150   39 36   20/ 10/ 10 1064.0R   3/ 5
DEVILS ISLAND    2200   42      50/  9/ 10 1071.0R
PORT WING        2100   43      20/  8/ 10 1064.0R
SAXON HARBOR     2000   47        CALM     1054.0R
$$

LMZ867-665-643>646-252300-
LAKE MICHIGAN

STATION/POSITION TIME  TEMP    WIND        PRES    WAVE
                       AIR SEA DIR/SP/G            HT/PER
                 (UTC) (F)     (DEG/KT/KT) (MB)    (FT/S)
CHAMBERS ISLAND  2100   67     180/  4/ 13 1071.0R
N MID LAKE BUOY  2150   43 37  200/ 16/ 17 1079.0R   4/ 6
NORTHPORT PIER   2100   58     160/  3/  8 1071.0R
SISTER BAY       2117   72     220/ 16/ 19   N/A
KEWAUNEE LAKESHO 2100          240/ 12/ 20 1069.0S
SHEBOYGAN LAKESH 2200          230/ 18/ 21   N/A
PORT WASHINGTON  2100   80     260/ 12/ 20   N/A
ATWATER BUOY     2100   71 45  210/ 19/ 27   N/A
MILWAUKEE LAKESH 2100   75     240/ 19/ 24   N/A
S MID LAKE BUOY  2150   46 38  200/ 10/ 12   N/A     2/ 5
KENOSHA   LAKESH 2200   78     220/ 20/ 27   N/A
$$

TC  - TEMPERATURE IN CELSIUS
VSB - VISIBILITY IN STATUTE MILES
WCI - WIND CHILL INDEX
HX  - HEAT INDEX



USA.gov is the U.S. government's official web portal to all federal, state and local government web resources and services.